Temperature
16 16 16 16 17 17 18 20 21 21 21 21 21 21 20 19 18 16 14 14 14 15 15 14 14 14 14 14 13 14 13 13 13 13 13 13 13 13 13 13 14 14 14 14 14 14 14 14 14
16 16 16 17 17 17 19 20 20 20 20 20 20 20 19 17 16 15 14 14 14 14 14 14 14 14 13 13 13 13 13 13 13 13 13 13 13 13 13 13 13 14 14 14 14 14 14 14 14
15 16 16 17 17 18 19 20 20 20 20 20 19 18 18 16 15 14 14 14 14 14 14 14 13 13 13 13 13 13 13 13 13 13 13 13 13 13 13 13 13 13 14 14 14 14 14 14 14
15 16 17 17 17 19 19 20 20 20 19 19 19 17 16 15 14 14 14 14 13 13 13 13 13 13 13 13 12 12 12 12 12 12 12 12 12 12 12 13 13 13 13 14 14 14 14 14 14
15 16 16 16 18 19 19 20 20 19 19 19 18 17 14 14 14 14 13 13 13 13 13 13 13 13 13 12 12 12 12 12 12 12 12 12 12 12 12 12 13 13 13 13 13 13 13 13 13
16 17 16 16 18 19 19 19 20 19 19 18 18 17 13 13 13 13 13 12 12 12 12 12 12 12 12 12 12 12 12 12 12 12 12 12 12 12 12 12 12 12 12 13 13 13 13 13 13
16 15 16 17 18 18 18 19 18 18 17 17 17 16 13 12 12 12 12 12 12 12 12 12 12 12 12 12 12 11 11 11 11 11 11 11 11 11 11 11 11 12 12 12 12 13 13 13 12
15 15 16 17 17 17 18 18 17 17 16 16 16 15 12 12 12 12 11 11 11 11 11 11 11 11 11 11 11 11 11 11 11 11 11 11 11 11 11 11 11 11 11 12 12 12 12 12 12
15 14 15 16 17 17 17 17 16 16 15 14 14 13 12 12 11 11 11 11 11 11 11 11 11 11 11 11 11 11 11 10 10 10 10 11 11 11 11 11 11 11 11 11 11 11 11 11 11
14 13 15 16 16 16 16 16 15 15 14 13 12 12 11 11 11 10 10 10 10 10 10 10 10 10 10 10 10 10 10 10 10 10 10 10 10 10 10 10 10 10 10 10 10 10 11 11 10
14 14 15 15 15 15 14 14 14 14 12 12 12 11 10 10 10 9 9 9 10 10 10 10 10 10 10 10 10 10 10 10 10 10 10 10 10 10 9 10 10 10 10 10 10 10 10 10 10
14 14 14 14 14 13 13 13 13 12 11 11 11 11 10 10 9 9 9 9 9 9 9 9 9 9 9 9 9 9 9 9 9 9 9 9 9 9 9 9 9 9 9 9 9 9 9 9 9
13 13 13 13 13 12 12 12 11 10 10 10 10 10 9 9 9 8 8 8 8 8 8 8 8 8 8 9 8 8 8 9 9 9 9 9 8 8 8 8 9 9 9 9 9 9 9 9 9
13 12 12 12 12 12 11 11 10 10 10 9 9 8 8 8 8 8 8 7 8 7 7 7 8 8 8 8 8 8 8 8 8 8 8 8 8 8 8 8 8 8 8 8 8 8 8 8 8
12 11 11 12 12 11 11 10 10 9 9 9 8 8 7 7 7 7 7 7 7 7 7 7 7 7 7 7 7 7 7 7 7 7 7 7 7 7 7 7 7 7 7 8 8 7 7 8 8
12 11 11 11 12 11 10 9 9 9 9 8 8 7 6 6 6 6 6 6 6 6 6 6 6 7 7 7 7 7 7 6 7 7 7 7 7 7 7 7 7 7 7 7 7 7 7 7 7
11 11 11 11 11 11 10 9 8 8 8 7 7 6 5 5 5 5 5 5 5 5 6 6 6 6 6 6 6 6 6 6 6 6 6 6 6 6 6 6 6 6 6 6 6 6 6 6 6
10 10 10 10 10 10 9 8 7 8 7 7 6 6 5 4 4 4 4 4 4 5 5 5 5 5 5 5 5 5 5 5 5 6 6 6 6 6 6 6 6 6 6 6 6 5 5 5 5
10 10 9 10 10 9 8 8 7 7 6 6 6 5 4 4 3 3 3 3 3 4 4 4 4 4 5 5 5 5 5 5 5 5 5 5 5 5 5 5 5 5 5 5 5 5 5 5 5
9 9 9 9 9 9 8 7 7 6 6 5 5 4 4 3 3 2 2 3 3 3 3 3 3 4 4 4 4 4 4 4 4 4 4 4 4 4 5 5 5 4 4 4 4 4 4 4 4
9 8 8 8 7 8 7 6 6 6 5 5 5 4 3 3 2 1 1 1 2 2 2 2 2 3 3 3 3 3 3 3 4 4 4 4 4 4 4 4 4 4 4 4 4 4 4 4 4
7 8 8 7 6 6 7 5 6 5 4 4 4 3 2 2 1 1 0 1 1 1 1 1 2 2 2 2 2 2 2 3 3 3 3 3 3 3 3 3 3 3 3 3 3 3 3 3 3
7 8 7 7 6 5 6 5 5 5 4 3 3 2 1 1 0 -0 -0 -0 -0 0 0 1 1 1 2 2 2 2 2 2 2 2 2 2 3 3 3 3 3 3 3 3 3 3 3 3 3
7 7 7 6 5 5 6 6 5 4 3 2 1 1 0 -0 -1 -1 -1 -1 -1 -1 -0 -0 0 1 1 1 1 1 1 1 2 2 2 2 2 2 2 2 2 2 2 2 2 2 2 2 2
6 5 5 5 5 5 7 6 4 3 2 2 1 0 -1 -1 -2 -2 -2 -2 -2 -1 -1 -1 -1 -0 0 0 1 1 1 1 1 1 2 2 2 2 2 2 2 2 2 2 2 2 2 2 2
5 5 4 4 5 5 6 5 2 2 1 1 0 -1 -2 -2 -2 -3 -3 -3 -3 -2 -2 -2 -2 -1 -1 -1 -0 0 0 1 1 1 1 1 1 1 1 1 1 1 1 1 1 1 1 1 1
5 4 5 4 4 4 5 3 1 1 0 -0 -1 -2 -2 -3 -3 -4 -4 -4 -3 -3 -3 -3 -2 -2 -2 -1 -1 -1 -1 -0 -0 0 0 1 1 1 1 1 1 1 1 1 1 1 1 1 1
5 4 4 3 3 4 5 4 2 -1 -1 -2 -2 -2 -3 -3 -4 -4 -4 -4 -4 -4 -3 -3 -3 -3 -2 -2 -2 -2 -1 -1 -1 -1 -0 -0 0 0 0 0 0 0 0 0 0 -0 0 -0 -0
3 3 3 3 3 3 3 2 1 -0 -1 -2 -3 -3 -4 -4 -5 -5 -5 -5 -5 -4 -4 -4 -4 -3 -3 -3 -2 -2 -2 -2 -1 -1 -1 -1 -0 -0 -0 -0 -0 -0 -0 -0 -0 -0 -0 -0 -1
3 3 2 2 2 3 2 1 -1 -2 -2 -2 -3 -3 -4 -5 -5 -6 -6 -6 -5 -5 -5 -5 -4 -4 -4 -4 -3 -3 -3 -2 -2 -2 -2 -1 -1 -1 -1 -1 -0 -0 -0 -1 -1 -1 -1 -1 -1
Wind_Speed
9 10 6 3 3 5 8 5 2 0 0 2 4 3 4 5 4 6 3 3 6 7 9 10 10 10 10 11 11 11 10 11 11 11 11 11 12 13 13 14 15 15 16 16 16 16 16 17 17
8 6 4 3 4 7 6 4 2 0 2 3 3 3 3 5 7 7 4 4 5 7 9 9 10 10 11 11 11 10 10 11 11 11 11 12 13 13 13 14 15 15 16 16 16 16 16 16 16
8 6 3 4 6 7 4 1 3 3 3 3 3 4 3 4 6 5 4 5 6 7 8 9 10 10 10 11 11 10 10 10 10 11 11 12 13 13 13 14 14 15 16 16 16 16 16 15 15
4 3 4 6 10 6 4 1 2 3 3 3 3 4 4 6 5 5 6 6 6 7 9 10 11 10 10 10 11 10 10 10 10 11 11 12 12 13 14 14 14 15 16 16 15 15 16 15 15
4 4 6 8 11 6 3 1 2 1 2 2 3 3 5 5 9 9 6 6 6 6 8 10 10 10 10 10 10 10 10 10 10 10 11 11 12 13 14 14 14 14 15 15 15 15 15 15 15
3 4 6 9 9 6 3 2 3 2 1 2 2 2 5 6 8 7 6 5 6 7 7 9 9 9 9 10 10 10 9 10 10 10 11 11 11 12 13 14 14 14 15 15 14 15 15 15 15
4 4 8 9 7 5 3 1 2 2 2 2 1 2 5 6 6 6 5 5 6 7 7 8 8 8 8 9 10 10 11 11 11 10 11 12 12 12 13 14 14 14 14 14 14 14 14 15 15
3 4 7 8 8 5 1 0 1 2 2 2 2 2 4 5 6 6 5 5 6 6 6 6 7 7 7 7 9 10 10 11 11 11 11 12 12 12 13 13 14 14 13 13 13 13 13 14 14
4 5 7 7 6 2 2 0 1 2 1 1 3 4 6 9 7 6 5 4 5 5 4 5 5 5 6 7 8 8 9 10 10 10 11 10 10 11 11 13 14 13 13 12 12 12 12 12 13
4 6 7 5 4 3 3 3 1 0 0 1 4 5 7 8 7 6 5 4 4 3 3 3 4 5 5 6 7 6 6 7 8 8 8 8 8 9 10 12 13 13 12 11 10 10 10 9 9
4 6 5 4 4 3 4 4 3 2 2 1 1 3 5 6 5 5 4 3 3 3 3 3 4 5 4 4 5 5 5 5 6 7 7 8 8 8 9 8 9 9 9 8 8 9 8 9 9
6 6 5 4 3 3 3 3 2 2 2 3 2 4 4 4 4 4 4 2 2 3 3 3 3 4 4 4 4 4 4 4 4 5 7 7 5 5 6 6 6 6 7 6 7 7 8 10 10
9 7 5 3 1 1 2 3 2 2 1 2 3 4 4 3 3 3 3 3 3 3 3 3 3 3 4 4 3 4 3 4 5 5 6 7 5 4 5 5 6 6 7 6 6 6 7 8 9
4 4 5 4 4 3 3 3 3 3 1 2 3 3 4 4 4 3 3 2 2 3 2 2 3 3 3 3 3 3 4 4 4 4 6 6 6 5 5 5 5 6 6 6 6 6 6 6 7
4 5 7 7 6 4 2 5 5 3 3 3 3 3 4 4 4 3 3 2 2 2 2 2 2 3 3 3 3 3 4 4 3 4 6 6 6 6 6 4 4 5 6 7 6 6 6 5 6
6 7 7 6 6 5 4 7 3 3 3 3 3 3 3 3 4 3 3 3 3 3 3 2 3 3 3 2 3 3 4 3 3 4 5 6 6 7 6 4 4 6 6 5 4 4 3 3 3
6 7 8 5 5 3 5 5 2 2 3 3 2 3 3 3 3 3 4 4 4 3 3 3 3 3 3 3 3 3 4 4 3 3 4 5 6 7 6 5 4 6 5 4 4 3 3 4 3
4 6 5 5 4 4 6 4 2 2 3 3 3 3 3 3 3 3 4 4 4 4 4 3 3 3 3 3 2 3 3 3 3 3 3 4 5 6 6 5 5 6 4 3 3 3 3 3 3
6 6 7 6 2 3 7 6 4 3 2 2 2 2 2 3 3 4 4 4 4 4 3 3 3 3 2 1 1 1 1 1 2 3 3 3 4 5 6 4 4 4 4 4 4 4 4 3 2
7 8 7 5 2 3 6 6 4 4 3 2 2 2 3 3 3 3 3 4 3 3 2 2 2 1 2 1 1 0 2 1 1 2 3 3 4 5 5 5 4 3 4 4 4 5 3 2 2
7 7 6 4 5 5 5 5 6 4 4 2 2 2 2 2 2 2 3 3 3 3 2 2 1 1 1 1 1 1 1 1 1 0 0 1 3 4 5 6 5 4 4 5 5 5 4 3 2
6 3 5 4 3 4 5 5 5 6 4 3 3 2 2 2 2 3 3 3 3 3 2 2 1 1 2 1 0 1 2 1 1 2 1 1 3 4 5 6 6 4 3 4 4 4 3 5 4
4 5 7 6 6 6 6 5 4 6 5 4 3 3 3 3 3 3 3 3 3 3 2 2 1 1 2 2 1 1 2 1 1 2 2 2 2 3 4 5 5 4 3 4 4 4 4 4 5
4 4 6 5 4 7 8 7 3 3 3 3 3 3 3 4 3 3 3 3 3 3 2 2 2 2 2 2 2 1 2 2 2 2 3 2 2 2 4 5 4 4 3 4 4 5 5 5 5
2 1 1 2 5 6 4 5 2 3 4 4 4 3 3 3 3 4 4 3 3 3 3 3 3 2 2 2 2 2 1 3 4 3 3 3 3 3 4 4 4 4 4 4 4 5 5 5 5
3 2 2 3 4 3 2 4 3 5 5 6 6 4 3 3 3 3 4 4 4 4 4 3 2 2 3 3 3 3 2 1 2 3 3 4 4 4 4 5 5 5 5 5 4 4 5 5 6
2 2 2 2 4 4 4 2 3 3 5 5 5 4 3 3 3 3 3 4 4 4 4 3 3 2 3 3 3 3 3 2 2 2 2 3 3 3 4 4 5 5 6 6 5 5 5 5 5
1 1 1 2 3 5 4 3 2 2 1 2 2 2 2 3 3 4 3 4 4 4 4 3 3 3 3 3 3 3 3 3 2 2 2 2 3 3 3 4 4 5 5 6 6 5 5 6 5
2 3 3 3 4 3 4 2 2 3 3 3 2 1 1 2 3 3 3 3 4 4 4 4 4 4 4 4 3 3 3 3 2 2 2 2 3 3 4 4 4 5 5 6 6 6 6 7 6
1 2 3 3 5 4 4 3 3 5 4 4 2 2 2 2 2 3 3 3 4 4 4 5 4 4 4 4 4 3 3 3 3 2 2 2 3 3 4 4 5 5 5 5 7 7 7 7 8
Wind_Direction
280 257 245 250 242 233 235 234 226 250 80 40 35 19 23 27 41 105 130 75 88 109 122 134 123 119 115 111 106 101 99 96 93 89 87 87 87 84 81 79 76 76 77 74 72 73 75 73 72
274 261 250 239 239 238 232 215 189 55 65 61 47 36 44 65 71 97 91 73 90 106 119 129 122 118 116 113 109 105 103 100 97 93 90 89 89 88 85 82 78 77 78 75 73 72 73 73 70
260 252 246 235 236 241 240 134 130 122 93 86 85 46 40 61 77 92 87 92 88 93 108 119 117 115 117 117 113 108 107 104 101 98 94 93 91 89 86 83 81 78 78 76 75 73 73 74 71
251 229 242 242 244 243 244 222 110 133 128 103 108 97 81 48 57 78 92 92 93 89 100 116 114 111 116 120 118 114 110 108 104 101 99 95 93 91 88 85 82 79 78 76 75 74 72 72 71
237 238 232 238 243 246 257 285 294 153 171 133 128 117 96 64 71 83 90 92 92 91 95 115 116 113 111 113 116 117 115 111 108 105 104 99 96 93 90 87 85 81 79 77 75 75 71 70 69
241 238 237 239 234 230 229 254 299 308 205 116 123 128 104 89 76 79 82 85 83 88 90 111 114 111 111 108 106 109 111 112 108 107 103 101 98 96 92 89 87 83 80 77 74 75 71 70 67
252 246 248 258 255 242 237 233 279 308 330 40 44 115 109 89 78 85 81 79 77 81 83 95 107 107 105 105 104 103 100 101 101 99 99 96 94 94 93 90 87 83 80 77 75 75 73 69 65
276 274 252 252 256 255 220 283 336 349 323 45 37 86 112 112 101 96 88 79 76 76 77 87 98 100 101 102 102 101 101 101 100 96 95 95 94 92 91 90 87 83 80 77 74 75 73 69 63
270 249 250 257 264 274 90 13 17 52 22 48 68 65 81 110 111 104 93 79 79 81 76 76 85 88 93 100 104 101 102 103 103 100 99 96 93 90 87 89 89 87 82 77 74 75 73 67 60
225 238 242 277 320 335 13 1 1 28 257 63 67 73 97 112 122 126 127 127 124 119 108 84 89 90 95 99 101 101 104 108 106 104 99 95 93 96 94 91 91 88 82 78 74 74 69 62 58
221 238 250 297 346 349 335 331 336 291 285 321 76 109 118 124 131 142 147 145 145 135 124 102 92 94 96 92 96 96 100 101 107 109 106 100 98 101 99 95 91 88 83 74 71 64 60 61 60
237 252 264 280 336 330 312 302 325 332 308 360 45 112 125 133 146 157 153 144 122 114 117 106 97 100 98 99 97 99 97 94 95 109 107 100 91 93 101 100 100 93 82 74 72 67 63 61 59
235 244 256 276 311 300 288 272 268 270 284 37 58 92 111 116 112 113 125 122 108 104 93 82 74 97 103 97 100 100 97 100 100 103 106 107 99 96 95 94 94 88 85 79 74 71 69 63 59
238 245 248 249 241 248 254 259 248 250 150 98 83 92 96 88 83 77 68 68 95 107 101 88 83 72 90 95 106 102 104 103 111 108 108 112 109 103 95 89 88 85 87 85 80 73 69 66 64
237 239 242 231 219 211 220 256 233 208 147 132 120 108 82 74 72 69 62 61 57 87 101 98 90 69 75 96 101 104 110 115 115 116 122 122 119 116 108 100 93 94 95 91 88 82 77 73 67
231 235 238 218 208 197 210 247 222 156 160 163 142 125 99 77 69 62 55 47 53 55 71 72 69 69 61 74 92 98 103 103 105 116 123 127 127 125 113 105 100 107 105 97 92 91 89 80 75
221 240 246 229 202 202 221 242 186 156 178 170 146 123 111 84 61 52 54 53 62 62 62 55 61 72 64 57 91 96 96 92 94 106 113 122 126 127 119 115 112 116 107 96 103 95 105 97 87
249 253 260 253 210 219 232 233 180 190 169 158 149 125 111 98 69 59 55 60 58 60 60 53 48 47 56 57 80 89 85 84 93 96 108 126 131 133 126 121 125 123 113 113 111 110 101 109 109
281 274 269 277 272 251 239 239 202 184 179 157 151 129 97 81 69 62 59 66 64 59 57 55 47 36 46 57 101 147 161 144 103 111 122 132 138 140 130 125 129 127 132 136 134 133 119 110 114
267 271 271 288 286 268 260 256 212 185 175 152 131 121 105 73 56 49 49 58 64 60 57 57 54 38 22 349 346 218 170 159 125 107 125 142 146 149 146 140 142 142 137 142 146 143 140 148 152
257 257 271 280 309 274 260 252 209 183 158 144 108 90 87 101 82 51 41 46 47 44 41 25 7 360 3 6 19 52 74 99 80 100 158 161 166 162 158 153 148 154 155 163 164 162 157 171 195
264 279 282 269 259 252 213 257 215 182 175 166 142 106 76 81 72 58 44 38 31 18 16 24 12 350 350 15 59 181 180 204 232 204 209 201 176 171 164 156 152 156 157 163 171 168 174 167 184
277 297 274 256 245 264 228 241 232 168 194 193 154 113 87 71 79 65 44 34 20 10 4 6 16 354 2 353 303 224 194 213 191 190 190 210 193 174 169 164 158 162 165 167 169 174 183 183 183
294 292 265 237 235 249 217 212 234 182 183 142 113 97 80 60 55 59 45 40 27 19 16 14 13 3 355 346 342 308 208 199 192 196 199 210 219 194 182 179 170 168 171 177 180 181 191 197 190
290 317 302 233 219 239 191 211 199 99 87 110 122 102 73 66 49 39 29 22 19 16 15 14 5 355 356 350 336 328 265 213 205 200 204 210 221 223 203 190 185 182 191 188 188 189 196 199 195
246 231 219 246 256 286 229 225 147 96 75 75 91 97 73 61 52 37 24 21 14 7 9 5 357 353 350 344 333 328 315 239 232 221 216 214 222 228 210 199 194 190 192 197 195 202 207 202 200
244 229 243 279 282 266 234 158 144 86 70 68 73 78 65 53 40 27 24 21 12 4 0 355 354 353 344 341 336 322 327 298 273 258 244 232 236 240 212 205 200 194 193 194 193 207 210 206 207
246 296 265 236 266 267 258 220 192 162 154 91 72 70 54 40 31 19 18 12 7 4 360 358 0 355 350 344 329 325 322 314 293 266 253 252 252 247 220 211 206 202 199 195 195 205 209 207 211
193 220 239 252 248 255 270 259 57 133 143 141 119 81 64 40 23 15 6 5 5 6 6 2 2 356 351 344 337 337 335 331 310 277 267 265 264 247 226 214 211 210 207 202 199 205 207 208 213
225 223 207 226 250 238 261 263 77 78 78 87 85 70 69 53 30 23 12 6 8 6 4 1 355 354 346 339 336 337 340 338 328 298 290 284 264 253 243 221 212 215 217 210 205 207 209 210 213
Height
1492 1493 1495 1498 1499 1498 1493 1484 1479 1481 1483 1486 1487 1488 1490 1494 1499 1509 1509 1507 1507 1508 1509 1511 1512 1514 1516 1517 1518 1520 1521 1522 1522 1523 1524 1525 1525 1526 1527 1527 1528 1529 1529 1530 1531 1532 1532 1533 1534
1491 1494 1497 1497 1498 1499 1490 1482 1482 1483 1485 1487 1489 1490 1492 1497 1501 1504 1505 1507 1507 1508 1509 1511 1513 1514 1516 1517 1519 1520 1521 1522 1523 1524 1525 1526 1526 1527 1528 1528 1529 1530 1530 1531 1532 1533 1534 1534 1535
1491 1494 1496 1493 1492 1491 1486 1480 1482 1483 1486 1488 1490 1493 1496 1500 1502 1504 1505 1506 1507 1508 1509 1511 1513 1514 1516 1517 1519 1520 1522 1522 1523 1525 1526 1526 1527 1528 1528 1529 1530 1531 1531 1532 1533 1534 1535 1536 1537
1492 1494 1494 1493 1489 1482 1481 1481 1480 1483 1486 1488 1490 1495 1498 1502 1503 1504 1504 1506 1507 1508 1509 1511 1513 1514 1516 1517 1519 1520 1522 1523 1524 1525 1526 1527 1528 1528 1529 1530 1531 1531 1532 1533 1534 1535 1536 1537 1538
1492 1492 1492 1490 1484 1480 1479 1480 1481 1483 1485 1488 1490 1494 1499 1502 1502 1503 1504 1506 1507 1508 1510 1511 1513 1514 1516 1517 1519 1521 1522 1523 1524 1525 1526 1527 1528 1529 1529 1530 1531 1532 1533 1534 1535 1536 1537 1538 1539
1492 1489 1491 1488 1481 1478 1479 1481 1482 1483 1485 1488 1491 1494 1500 1501 1501 1503 1504 1506 1507 1508 1510 1511 1512 1514 1516 1517 1519 1520 1522 1523 1524 1525 1527 1527 1528 1529 1530 1531 1532 1532 1533 1534 1535 1537 1538 1539 1540
1490 1487 1486 1482 1480 1479 1480 1481 1483 1485 1486 1490 1491 1494 1499 1500 1501 1502 1504 1505 1507 1508 1509 1511 1512 1514 1515 1517 1518 1520 1521 1523 1524 1525 1526 1527 1528 1529 1530 1531 1532 1533 1534 1535 1536 1537 1538 1539 1540
1487 1486 1482 1480 1479 1480 1480 1482 1484 1486 1488 1491 1492 1495 1498 1500 1500 1502 1504 1505 1506 1508 1509 1510 1511 1513 1515 1516 1518 1519 1521 1522 1523 1524 1526 1527 1528 1529 1530 1531 1532 1533 1534 1535 1536 1537 1538 1540 1541
1486 1488 1484 1480 1479 1480 1480 1482 1485 1487 1489 1491 1492 1495 1497 1498 1499 1501 1503 1504 1506 1507 1508 1509 1510 1512 1514 1515 1517 1518 1520 1521 1522 1524 1525 1526 1527 1529 1529 1530 1531 1533 1534 1535 1537 1538 1539 1540 1541
1484 1485 1481 1479 1479 1480 1481 1483 1485 1487 1489 1491 1493 1494 1496 1497 1498 1500 1501 1502 1504 1505 1507 1508 1509 1511 1512 1514 1515 1517 1518 1520 1521 1522 1524 1525 1527 1528 1529 1530 1531 1532 1534 1535 1536 1537 1538 1540 1541
1481 1481 1479 1480 1481 1481 1482 1484 1486 1487 1490 1491 1493 1494 1495 1496 1497 1499 1500 1502 1503 1505 1506 1507 1508 1510 1511 1513 1514 1515 1517 1518 1520 1521 1522 1524 1525 1527 1528 1529 1530 1532 1533 1534 1536 1537 1538 1539 1540
1480 1478 1479 1481 1482 1483 1484 1485 1487 1488 1491 1491 1492 1493 1493 1494 1496 1497 1499 1500 1501 1503 1504 1506 1507 1508 1510 1511 1513 1514 1515 1517 1518 1520 1521 1523 1524 1526 1527 1528 1529 1531 1532 1533 1535 1536 1538 1539 1540
1478 1478 1480 1481 1482 1483 1484 1485 1487 1488 1490 1490 1491 1492 1492 1493 1494 1496 1498 1499 1500 1501 1502 1503 1506 1507 1508 1510 1511 1512 1513 1515 1516 1518 1520 1521 1523 1524 1525 1527 1528 1529 1531 1532 1534 1535 1537 1538 1539
1476 1478 1479 1480 1481 1483 1484 1485 1486 1486 1488 1489 1490 1491 1492 1492 1493 1494 1495 1496 1498 1499 1500 1502 1503 1505 1506 1508 1508 1510 1511 1513 1514 1516 1518 1519 1521 1523 1524 1525 1526 1528 1529 1531 1532 1534 1535 1537 1538
1477 1478 1478 1477 1478 1480 1483 1484 1484 1484 1487 1488 1489 1490 1491 1491 1492 1492 1493 1494 1495 1497 1498 1499 1501 1502 1504 1505 1507 1508 1509 1511 1512 1513 1515 1517 1519 1521 1522 1523 1525 1526 1527 1529 1531 1533 1534 1535 1537
1476 1476 1476 1473 1475 1478 1483 1483 1482 1483 1485 1486 1487 1489 1490 1490 1491 1491 1492 1492 1493 1494 1496 1497 1499 1500 1501 1503 1504 1506 1507 1509 1510 1511 1513 1515 1517 1518 1520 1521 1522 1524 1526 1527 1529 1531 1532 1533 1535
1474 1474 1471 1472 1473 1475 1478 1480 1481 1482 1483 1485 1486 1487 1488 1489 1490 1490 1490 1491 1491 1492 1493 1494 1496 1497 1499 1500 1502 1504 1505 1506 1508 1509 1511 1513 1514 1516 1517 1518 1520 1522 1523 1525 1527 1528 1530 1532 1533
1475 1472 1471 1472 1471 1474 1476 1478 1481 1481 1482 1483 1485 1486 1487 1487 1488 1489 1489 1489 1489 1490 1491 1492 1494 1495 1496 1498 1499 1501 1502 1504 1505 1506 1508 1510 1512 1513 1515 1516 1518 1519 1521 1522 1524 1526 1528 1530 1531
1472 1471 1472 1471 1471 1473 1474 1475 1478 1479 1480 1481 1483 1484 1486 1486 1487 1488 1488 1488 1488 1488 1489 1490 1491 1492 1493 1495 1496 1497 1499 1500 1502 1504 1505 1507 1509 1510 1512 1513 1515 1516 1517 1519 1521 1523 1525 1527 1529
1471 1472 1472 1471 1470 1472 1474 1474 1475 1477 1478 1480 1482 1483 1484 1485 1485 1486 1486 1486 1486 1486 1486 1488 1489 1489 1491 1492 1493 1495 1496 1498 1499 1501 1503 1504 1505 1507 1508 1510 1511 1513 1514 1516 1518 1520 1522 1524 1526
1470 1472 1471 1473 1474 1472 1474 1474 1474 1475 1477 1479 1480 1482 1483 1484 1484 1484 1484 1484 1484 1484 1484 1485 1486 1487 1488 1489 1490 1492 1493 1494 1496 1497 1499 1501 1502 1503 1505 1506 1508 1510 1511 1512 1514 1516 1518 1520 1523
1471 1469 1470 1472 1478 1476 1474 1478 1470 1472 1475 1477 1479 1480 1482 1483 1483 1483 1483 1483 1482 1482 1483 1483 1483 1484 1485 1486 1487 1488 1489 1490 1491 1493 1495 1497 1499 1500 1501 1503 1504 1506 1507 1508 1510 1513 1515 1517 1518
1471 1469 1470 1471 1475 1476 1473 1476 1468 1469 1473 1475 1477 1479 1480 1481 1481 1481 1481 1481 1481 1481 1481 1481 1481 1481 1482 1483 1484 1485 1486 1487 1488 1490 1492 1494 1495 1496 1498 1499 1500 1502 1503 1505 1507 1508 1511 1513 1514
1470 1470 1468 1470 1474 1476 1465 1469 1466 1469 1470 1474 1477 1478 1479 1480 1480 1480 1480 1480 1480 1479 1479 1478 1478 1479 1479 1480 1481 1482 1482 1483 1485 1486 1488 1489 1491 1492 1494 1495 1496 1498 1499 1501 1502 1504 1506 1508 1510
1471 1475 1478 1476 1476 1467 1456 1461 1470 1470 1470 1472 1475 1477 1479 1479 1480 1479 1478 1478 1477 1477 1476 1476 1476 1476 1476 1477 1478 1478 1479 1480 1481 1482 1484 1485 1487 1488 1489 1490 1491 1493 1495 1497 1498 1499 1501 1503 1505
1472 1473 1480 1481 1472 1464 1458 1463 1472 1472 1472 1473 1475 1477 1478 1479 1479 1478 1477 1476 1476 1475 1474 1474 1474 1473 1473 1474 1474 1475 1476 1477 1478 1479 1480 1481 1483 1484 1485 1486 1487 1488 1491 1492 1493 1495 1496 1498 1500
1473 1474 1473 1477 1472 1472 1462 1466 1474 1472 1473 1475 1476 1477 1478 1478 1478 1477 1476 1475 1474 1473 1473 1472 1472 1471 1471 1471 1471 1472 1472 1472 1473 1475 1476 1477 1478 1479 1481 1481 1483 1484 1485 1487 1488 1490 1491 1493 1495
1472 1473 1476 1478 1477 1471 1460 1461 1469 1475 1475 1476 1476 1477 1477 1478 1477 1476 1475 1474 1473 1472 1471 1471 1470 1469 1469 1469 1468 1468 1469 1469 1470 1470 1471 1472 1473 1475 1476 1477 1478 1479 1480 1481 1483 1485 1486 1488 1489
1473 1475 1475 1475 1473 1475 1470 1470 1470 1470 1472 1474 1476 1477 1477 1477 1476 1475 1474 1473 1472 1471 1470 1469 1468 1467 1467 1466 1466 1465 1465 1466 1466 1466 1467 1468 1469 1470 1471 1472 1472 1474 1474 1476 1478 1479 1481 1482 1483
1471 1472 1475 1481 1476 1471 1472 1477 1472 1472 1472 1474 1475 1476 1476 1476 1476 1475 1473 1472 1470 1469 1468 1467 1466 1465 1464 1464 1463 1463 1463 1463 1462 1462 1462 1463 1464 1465 1466 1467 1467 1468 1469 1470 1472 1473 1475 1476 1477